Warrenton, VA

7:45 AM EDT on June 28, 2017 (GMT -0400)
Warrenton

Weather History for KHWY - February, 2013

Change the Weather History Date:

Tuesday, February 26, 2013

  Actual Average (KHEF) Record (KHEF)
Temperature  
Mean Temperature 34 °F -  
Max Temperature 45 °F 47 °F 69 °F (2002)
Min Temperature 23 °F 26 °F 17 °F (2005)
Degree Days  
Heating Degree Days 31    
Moisture  
Dew Point 36 °F    
Average Humidity 98    
Maximum Humidity 100    
Minimum Humidity 87    
Precipitation  
Precipitation 0.69 in - - ()
Sea Level Pressure  
Sea Level Pressure 29.97 in    
Wind  
Wind Speed 3 mph (NE)    
Max Wind Speed 14 mph    
Max Gust Speed 23 mph    
Visibility 7 miles    
Events Rain    
Averages and records for this station are not official NWS values.
T = Trace of Precipitation, MM = Missing Value Source: NWS Daily Summary

Daily Weather History Graph

Daily Weather History Graph

Search for Another Location

Airport or City:

Trip Planner

Search our weather history database for the weather conditions in past years. The results will help you decide how hot, cold, wet, or windy it might be!

Date:

Astronomy

Feb. 26, 2013 Rise Set
Actual Time 6:46 AM EST 6:00 PM EST
Civil Twilight 6:20 AM EST 6:27 PM EST
Nautical Twilight 5:49 AM EST 6:58 PM EST
Astronomical Twilight 5:18 AM EST 7:29 PM EST
Moon 7:13 PM EST (2/26) 6:49 AM EST (2/26)
Length of Visible Light 12h 07m
Length of Day
11h 14m
Full, 99% of the Moon is Illuminated
Feb 26
Full
Mar 4
Last Quarter
Mar 11
New
Mar 19
First Quarter
Mar 27
Full

Hourly Weather History & Observations

Time (EST) Temp. Windchill Dew Point Humidity Pressure Visibility Wind Dir Wind Speed Gust Speed Precip Events Conditions
12:15 AM 25.3 °F - 24.4 °F 96% 30.19 in 10.0 mi Calm Calm - N/A   Clear
12:35 AM 25.3 °F - 25.0 °F 99% 30.19 in 10.0 mi Calm Calm - N/A   Clear
12:55 AM 23.9 °F - 23.7 °F 99% 30.18 in 10.0 mi Calm Calm - N/A   Clear
1:15 AM 25.2 °F - 25.2 °F 100% 30.21 in 10.0 mi Calm Calm - N/A   Clear
1:35 AM 24.6 °F - 24.6 °F 100% 30.21 in 10.0 mi Calm Calm - N/A   Clear
1:55 AM 24.4 °F - 24.4 °F 100% 30.21 in 10.0 mi Calm Calm - N/A   Clear
2:15 AM 24.6 °F - 24.6 °F 100% 30.20 in 10.0 mi Calm Calm - N/A   Clear
2:35 AM 26.6 °F 21.2 °F 26.1 °F 98% 30.19 in 10.0 mi SE 4.6 mph - N/A   Clear
2:55 AM 26.4 °F - 26.2 °F 99% 30.19 in 10.0 mi Calm Calm - N/A   Clear
3:15 AM 27.3 °F - 26.8 °F 98% 30.18 in 10.0 mi Calm Calm - N/A   Clear
3:35 AM 27.5 °F - 27.0 °F 98% 30.17 in 10.0 mi Calm Calm - N/A   Clear
3:55 AM 26.2 °F - 26.2 °F 100% 30.17 in 10.0 mi Calm Calm - N/A   Clear
4:15 AM 27.5 °F - 26.6 °F 96% 30.16 in 10.0 mi Calm Calm - N/A   Clear
4:35 AM 27.0 °F - 27.0 °F 100% 30.16 in 10.0 mi Calm Calm - N/A   Clear
4:55 AM 27.1 °F - 27.1 °F 100% 30.17 in 10.0 mi Calm Calm - N/A   Clear
5:15 AM 27.5 °F - 27.5 °F 100% 30.17 in 10.0 mi Calm Calm - N/A   Clear
5:35 AM 28.6 °F - 27.5 °F 96% 30.16 in 10.0 mi Calm Calm - N/A   Clear
5:55 AM 28.0 °F - 27.7 °F 99% 30.16 in 10.0 mi Calm Calm - N/A   Clear
6:15 AM 28.0 °F - 27.7 °F 99% 30.16 in 10.0 mi Calm Calm - N/A   Clear
6:35 AM 27.9 °F - 27.9 °F 100% 30.17 in 10.0 mi Calm Calm - N/A   Clear
6:55 AM 28.0 °F - 28.0 °F 100% 30.16 in 10.0 mi Calm Calm - N/A   Clear
7:15 AM 29.3 °F - 28.4 °F 96% 30.16 in 10.0 mi Calm Calm - N/A   Clear
7:35 AM 30.0 °F - 29.1 °F 96% 30.16 in 10.0 mi Calm Calm - N/A   Clear
7:55 AM 31.8 °F 27.3 °F 29.3 °F 90% 30.15 in 10.0 mi NE 4.6 mph - N/A   Clear
8:15 AM 32.0 °F 28.7 °F 29.7 °F 91% 30.15 in 10.0 mi NNE 3.5 mph - N/A   Scattered Clouds
8:35 AM 32.2 °F - 30.2 °F 92% 30.16 in 10.0 mi Calm Calm - N/A   Mostly Cloudy
8:55 AM 32.9 °F - 30.9 °F 92% 30.16 in 10.0 mi Calm Calm - N/A   Overcast
9:15 AM 34.0 °F 31.0 °F 31.5 °F 90% 30.16 in 10.0 mi NE 3.5 mph - N/A   Overcast
9:35 AM 34.7 °F 31.8 °F 32.0 °F 90% 30.16 in 10.0 mi NNE 3.5 mph - N/A   Overcast
9:55 AM 35.6 °F 31.7 °F 32.0 °F 87% 30.15 in 10.0 mi NE 4.6 mph - N/A   Overcast
10:15 AM 36.0 °F 33.3 °F 32.4 °F 87% 30.14 in 10.0 mi NE 3.5 mph - N/A   Overcast
10:35 AM 36.7 °F 34.1 °F 33.3 °F 87% 30.13 in 10.0 mi NE 3.5 mph - N/A   Drizzle
10:55 AM 36.7 °F 32.9 °F 34.7 °F 93% 30.12 in 10.0 mi NNE 4.6 mph - N/A   Drizzle
11:15 AM 37.0 °F 33.3 °F 35.4 °F 94% 30.11 in 10.0 mi NNE 4.6 mph - N/A Rain Light Rain
11:35 AM 37.6 °F 34.0 °F 36.5 °F 96% 30.10 in 7.0 mi NNE 4.6 mph - N/A Rain Light Rain
11:55 AM 37.6 °F 34.0 °F 36.9 °F 97% 30.09 in 7.0 mi NNE 4.6 mph - N/A Rain Light Rain
12:15 PM 37.8 °F 33.3 °F 37.6 °F 99% 30.08 in 5.0 mi NNE 5.8 mph - N/A Rain Light Rain
12:35 PM 38.1 °F 32.9 °F 38.1 °F 100% 30.06 in 5.0 mi NE 6.9 mph - N/A Rain Light Rain
12:55 PM 38.5 °F 33.4 °F 38.5 °F 100% 30.03 in 5.0 mi NE 6.9 mph - N/A Rain Light Rain
1:15 PM 39.2 °F 33.0 °F 39.2 °F 100% 30.02 in 5.0 mi NE 9.2 mph - N/A Rain Rain
1:35 PM 39.2 °F 33.6 °F 39.2 °F 100% 30.00 in 5.0 mi NE 8.1 mph - 0.01 in Rain Light Rain
1:55 PM 39.6 °F 34.7 °F 39.6 °F 100% 29.99 in 4.0 mi NE 6.9 mph - 0.02 in Rain Light Rain
2:15 PM 39.7 °F 33.2 °F 39.7 °F 100% 29.96 in 4.0 mi NE 10.4 mph - N/A Rain Light Rain
2:35 PM 40.5 °F 32.8 °F 40.5 °F 100% 29.92 in 4.0 mi ENE 13.8 mph 18.4 mph 0.01 in Rain Light Rain
2:55 PM 40.6 °F 33.8 °F 40.6 °F 100% 29.90 in 3.0 mi ENE 11.5 mph 20.7 mph 0.01 in Rain Light Rain
3:15 PM 41.2 °F 34.5 °F 41.2 °F 100% 29.88 in 3.0 mi ENE 11.5 mph 20.7 mph 0.01 in Rain Light Rain
3:35 PM 41.9 °F 35.0 °F 41.9 °F 100% 29.86 in 4.0 mi ENE 12.7 mph 21.9 mph 0.01 in Rain Light Rain
3:55 PM 42.3 °F 37.3 °F 42.3 °F 100% 29.86 in 4.0 mi ENE 8.1 mph - 0.01 in Rain Light Rain
4:15 PM 42.8 °F 36.6 °F 42.8 °F 100% 29.83 in 2.5 mi ENE 11.5 mph 18.4 mph 0.02 in Rain Rain
4:35 PM 43.0 °F 37.2 °F 43.0 °F 100% 29.81 in 4.0 mi ENE 10.4 mph - 0.04 in Rain Light Rain
4:55 PM 43.9 °F 38.3 °F 43.9 °F 100% 29.79 in 5.0 mi ENE 10.4 mph 20.7 mph 0.05 in Rain Rain
5:15 PM 44.2 °F 38.0 °F 44.2 °F 100% 29.76 in 5.0 mi ENE 12.7 mph 17.3 mph 0.02 in Rain Rain
5:35 PM 44.4 °F 38.6 °F 44.4 °F 100% 29.74 in 3.0 mi ENE 11.5 mph 23.0 mph 0.08 in Rain Rain
5:55 PM 44.6 °F 39.2 °F 44.6 °F 100% 29.72 in 4.0 mi ENE 10.4 mph 17.3 mph 0.12 in Rain Rain
6:15 PM 44.8 °F 39.9 °F 44.8 °F 100% 29.71 in 5.0 mi NE 9.2 mph - 0.02 in Rain Light Rain
6:35 PM 45.1 °F 40.8 °F 45.1 °F 100% 29.72 in 3.0 mi ENE 8.1 mph - 0.09 in Rain Heavy Rain
6:55 PM 45.3 °F 39.0 °F 45.3 °F 100% 29.70 in 4.0 mi ENE 13.8 mph - 0.17 in Rain Rain
7:15 PM 45.5 °F 39.9 °F 45.5 °F 100% 29.69 in 5.0 mi ENE 11.5 mph 16.1 mph 0.03 in Rain Rain
7:35 PM 45.3 °F 43.0 °F 45.3 °F 100% 29.70 in 2.5 mi North 4.6 mph - 0.13 in Rain Heavy Rain
7:55 PM 45.0 °F - 45.0 °F 100% 29.73 in 3.0 mi Calm Calm - 0.21 in Rain Rain
8:15 PM 44.8 °F 41.6 °F 44.8 °F 100% 29.71 in 5.0 mi NNW 5.8 mph - 0.04 in Rain Rain
8:35 PM 44.8 °F 42.4 °F 44.8 °F 100% 29.71 in 5.0 mi North 4.6 mph - 0.05 in Rain Heavy Rain
8:55 PM 44.8 °F 39.9 °F 44.8 °F 100% 29.69 in 7.0 mi NNE 9.2 mph - 0.06 in Rain Heavy Rain
9:15 PM 44.6 °F 40.2 °F 44.6 °F 100% 29.68 in 7.0 mi NNE 8.1 mph - 0.03 in Rain Heavy Rain
9:35 PM 44.6 °F 38.8 °F 44.6 °F 100% 29.65 in 7.0 mi NNE 11.5 mph 16.1 mph 0.03 in Rain Rain
9:55 PM 44.6 °F 40.2 °F 44.6 °F 100% 29.65 in 7.0 mi North 8.1 mph - 0.03 in   Drizzle
10:15 PM 44.8 °F 40.4 °F 44.8 °F 100% 29.65 in 5.0 mi NNW 8.1 mph - N/A   Drizzle
10:35 PM 44.6 °F 40.2 °F 44.6 °F 100% 29.63 in 4.0 mi NNE 8.1 mph - 0.01 in   Drizzle
10:55 PM 44.6 °F 39.7 °F 44.6 °F 100% 29.62 in 4.0 mi NNE 9.2 mph - 0.01 in   Drizzle
11:15 PM 44.6 °F 42.2 °F 44.6 °F 100% 29.61 in 4.0 mi North 4.6 mph - N/A   Light Drizzle
11:35 PM 44.6 °F 40.7 °F 44.6 °F 100% 29.60 in 4.0 mi NNE 6.9 mph - N/A   Light Drizzle
11:55 PM 44.6 °F 41.4 °F 44.6 °F 100% 29.60 in 4.0 mi NNW 5.8 mph - N/A Rain Light Rain